TimeEDT,TemperatureF,Dew PointF,Humidity,Sea Level PressureIn,VisibilityMPH,Wind Direction,Wind SpeedMPH,Gust SpeedMPH,PrecipitationIn,Events,Conditions,WindDirDegrees,DateUTC
12:15 AM,66.2,51.8,60,30.11,10.0,South,5.8,-,N/A,,Clear,180,2013-04-10 04:15:00
12:35 AM,66.2,51.8,60,30.12,7.0,Calm,Calm,-,N/A,,Clear,0,2013-04-10 04:35:00
12:55 AM,66.2,53.6,64,30.12,7.0,Calm,Calm,-,N/A,,Clear,0,2013-04-10 04:55:00
1:15 AM,62.6,55.4,77,30.13,7.0,SSW,3.5,-,N/A,,Clear,200,2013-04-10 05:15:00
1:35 AM,62.6,53.6,72,30.13,7.0,South,3.5,-,N/A,,Clear,190,2013-04-10 05:35:00
1:55 AM,62.6,55.4,77,30.13,7.0,South,5.8,-,N/A,,Clear,170,2013-04-10 05:55:00
2:15 AM,64.4,53.6,68,30.12,7.0,South,5.8,-,N/A,,Clear,180,2013-04-10 06:15:00
2:35 AM,64.4,55.4,73,30.12,7.0,South,4.6,-,N/A,,Clear,180,2013-04-10 06:35:00
2:55 AM,62.6,55.4,77,30.12,7.0,South,3.5,-,N/A,,Clear,190,2013-04-10 06:55:00
3:15 AM,60.8,57.2,88,30.12,7.0,South,3.5,-,N/A,,Clear,190,2013-04-10 07:15:00
3:55 AM,60.8,59.0,94,30.11,7.0,South,3.5,-,N/A,,Clear,190,2013-04-10 07:55:00
4:15 AM,60.8,59.0,94,30.10,7.0,SSW,3.5,-,N/A,,Clear,200,2013-04-10 08:15:00
4:35 AM,60.8,59.0,94,30.11,7.0,Calm,Calm,-,N/A,,Clear,0,2013-04-10 08:35:00
4:55 AM,59.0,59.0,100,30.10,7.0,South,4.6,-,N/A,,Clear,180,2013-04-10 08:55:00
5:15 AM,60.8,59.0,94,30.11,7.0,SSW,3.5,-,N/A,,Clear,200,2013-04-10 09:15:00
5:35 AM,60.8,59.0,94,30.11,7.0,South,4.6,-,N/A,,Clear,190,2013-04-10 09:35:00
5:55 AM,60.8,59.0,94,30.11,7.0,SSW,4.6,-,N/A,,Clear,200,2013-04-10 09:55:00
6:15 AM,59.0,59.0,100,30.11,7.0,South,4.6,-,N/A,,Clear,180,2013-04-10 10:15:00
6:35 AM,59.0,59.0,100,30.11,7.0,South,3.5,-,N/A,,Clear,180,2013-04-10 10:35:00
6:55 AM,59.0,59.0,100,30.11,7.0,South,3.5,-,N/A,,Clear,190,2013-04-10 10:55:00
7:15 AM,59.0,59.0,100,30.11,5.0,South,3.5,-,N/A,,Clear,190,2013-04-10 11:15:00
7:35 AM,59.0,59.0,100,30.11,5.0,South,4.6,-,N/A,,Clear,190,2013-04-10 11:35:00
7:55 AM,60.8,60.8,100,30.12,7.0,SSW,4.6,-,N/A,,Clear,200,2013-04-10 11:55:00
8:15 AM,62.6,59.0,88,30.12,5.0,South,5.8,-,N/A,,Clear,190,2013-04-10 12:15:00
8:35 AM,64.4,60.8,88,30.13,7.0,SSW,4.6,-,N/A,,Clear,210,2013-04-10 12:35:00
8:55 AM,64.4,59.0,83,30.14,7.0,SSW,4.6,-,N/A,,Clear,200,2013-04-10 12:55:00
9:15 AM,64.4,59.0,83,30.14,7.0,SSW,5.8,-,N/A,,Clear,200,2013-04-10 13:15:00
9:35 AM,66.2,55.4,68,30.14,7.0,SSW,8.1,-,N/A,,Clear,210,2013-04-10 13:35:00
9:55 AM,69.8,53.6,56,30.14,7.0,SW,9.2,-,N/A,,Clear,220,2013-04-10 13:55:00
10:15 AM,71.6,53.6,53,30.14,7.0,SW,9.2,-,N/A,,Clear,220,2013-04-10 14:15:00
10:35 AM,73.4,55.4,53,30.14,7.0,SSW,6.9,-,N/A,,Clear,200,2013-04-10 14:35:00
10:55 AM,73.4,53.6,50,30.15,7.0,SSW,8.1,-,N/A,,Clear,200,2013-04-10 14:55:00
11:15 AM,75.2,53.6,47,30.15,7.0,SSW,6.9,-,N/A,,Clear,200,2013-04-10 15:15:00
11:35 AM,75.2,53.6,47,30.16,7.0,South,10.4,-,N/A,,Clear,190,2013-04-10 15:35:00
11:55 AM,77.0,53.6,44,30.15,7.0,SSW,6.9,-,N/A,,Clear,210,2013-04-10 15:55:00
12:15 PM,78.8,55.4,44,30.14,7.0,SSW,5.8,-,N/A,,Clear,210,2013-04-10 16:15:00
12:35 PM,78.8,53.6,42,30.13,7.0,Calm,Calm,-,N/A,,Clear,0,2013-04-10 16:35:00
1:15 PM,78.8,51.8,39,30.11,7.0,SSW,9.2,-,N/A,,Clear,210,2013-04-10 17:15:00
1:35 PM,80.6,53.6,39,30.11,7.0,South,3.5,-,N/A,,Clear,190,2013-04-10 17:35:00
1:55 PM,80.6,51.8,37,30.10,7.0,SW,3.5,10.4,N/A,,Clear,220,2013-04-10 17:55:00
2:15 PM,80.6,50.0,34,30.09,7.0,Calm,Calm,-,N/A,,Clear,0,2013-04-10 18:15:00
2:35 PM,80.6,50.0,34,30.09,7.0,South,6.9,-,N/A,,Clear,180,2013-04-10 18:35:00
2:55 PM,82.4,50.0,32,30.08,10.0,ESE,4.6,-,N/A,,Clear,120,2013-04-10 18:55:00
3:15 PM,82.4,50.0,32,30.07,7.0,South,5.8,-,N/A,,Clear,190,2013-04-10 19:15:00
3:35 PM,84.2,50.0,30,30.06,10.0,South,5.8,-,N/A,,Clear,190,2013-04-10 19:35:00
3:55 PM,84.2,48.2,29,30.05,7.0,SSW,8.1,-,N/A,,Clear,210,2013-04-10 19:55:00
4:15 PM,84.2,46.4,27,30.03,10.0,SE,5.8,-,N/A,,Clear,130,2013-04-10 20:15:00
4:35 PM,84.2,48.2,29,30.03,10.0,South,6.9,-,N/A,,Clear,170,2013-04-10 20:35:00
4:55 PM,84.2,46.4,27,30.02,10.0,Calm,Calm,-,N/A,,Clear,0,2013-04-10 20:55:00
5:15 PM,84.2,48.2,29,30.01,7.0,SSE,5.8,-,N/A,,Clear,160,2013-04-10 21:15:00
5:35 PM,84.2,46.4,27,30.01,10.0,SW,4.6,-,N/A,,Clear,220,2013-04-10 21:35:00
5:55 PM,84.2,48.2,29,30.01,10.0,South,8.1,-,N/A,,Clear,170,2013-04-10 21:55:00
6:15 PM,84.2,46.4,27,30.01,10.0,SSW,4.6,-,N/A,,Clear,210,2013-04-10 22:15:00
6:35 PM,82.4,46.4,28,30.01,7.0,South,5.8,-,N/A,,Clear,190,2013-04-10 22:35:00
6:55 PM,80.6,46.4,30,30.01,7.0,South,3.5,-,N/A,,Clear,180,2013-04-10 22:55:00
7:15 PM,80.6,50.0,34,30.01,7.0,South,4.6,-,N/A,,Clear,170,2013-04-10 23:15:00
7:35 PM,78.8,50.0,36,30.00,7.0,SSE,4.6,-,N/A,,Clear,150,2013-04-10 23:35:00
7:55 PM,75.2,53.6,47,30.00,7.0,SSE,5.8,-,N/A,,Clear,150,2013-04-10 23:55:00
8:15 PM,73.4,53.6,50,29.99,10.0,SSE,8.1,-,N/A,,Clear,150,2013-04-11 00:15:00
8:35 PM,73.4,53.6,50,29.99,10.0,SSE,6.9,-,N/A,,Clear,150,2013-04-11 00:35:00
8:55 PM,73.4,53.6,50,29.99,7.0,SSE,5.8,-,N/A,,Clear,150,2013-04-11 00:55:00
9:15 PM,73.4,55.4,53,29.99,7.0,SSE,6.9,-,N/A,,Clear,150,2013-04-11 01:15:00
9:35 PM,71.6,53.6,53,29.99,10.0,SSE,6.9,-,N/A,,Clear,150,2013-04-11 01:35:00
9:55 PM,71.6,53.6,53,29.99,10.0,SSE,4.6,-,N/A,,Clear,160,2013-04-11 01:55:00
10:15 PM,69.8,51.8,53,29.98,10.0,SSE,5.8,-,N/A,,Clear,150,2013-04-11 02:15:00
10:55 PM,68.0,51.8,56,29.97,10.0,Calm,Calm,-,N/A,,Clear,0,2013-04-11 02:55:00
11:15 PM,68.0,51.8,56,29.97,7.0,South,3.5,-,N/A,,Clear,170,2013-04-11 03:15:00
11:35 PM,68.0,51.8,56,29.97,10.0,Calm,Calm,-,N/A,,Clear,0,2013-04-11 03:35:00
11:55 PM,66.2,50.0,56,29.97,10.0,South,3.5,-,N/A,,Clear,180,2013-04-11 03:55:00